GW3733 Weather Reports


time (UTC)temp
F
wind
direction
speed
knots
gust
knots
rain 1hr
in
rain 24hr
in
rain mn
in
humidity
%
barometer
mb
20260905100037 66 0 0.0 0.0 0.00 0.00 0.00 99 1008.1
20260905095532 66 12 0.9 0.9 0.00 0.00 0.00 99 1008.2
20260905095027 66 349 0.0 0.0 0.00 0.00 0.00 99 1008.2
20260905094522 66 350 0.0 0.0 0.00 0.00 0.00 99 1008.3
20260905094021 66 344 0.0 0.0 0.00 0.00 0.00 99 1008.3
20260905093516 66 344 0.0 0.0 0.00 0.00 0.00 99 1008.2
20260905093012 65 356 0.0 0.0 0.00 0.00 0.00 99 1008.4
20260905092512 65 359 0.0 0.0 0.00 0.00 0.00 99 1008.5
20260905092008 65 359 0.0 0.0 0.00 0.00 0.00 99 1008.4
20260905091502 65 4 0.0 0.0 0.00 0.00 0.00 99 1008.2
20260905091001 65 345 0.0 0.0 0.00 0.00 0.00 99 1008.4
20260905090456 64 346 0.0 0.0 0.00 0.00 0.00 99 1008.2
20260905085955 64 346 0.0 0.0 0.00 0.00 0.00 99 1008.1
20260905085455 64 345 0.0 0.0 0.00 0.00 0.00 99 1008.2
20260905084951 64 344 0.0 0.0 0.00 0.00 0.00 99 1008.1
20260905084450 64 343 0.0 0.0 0.00 0.00 0.00 99 1008.3
20260905083946 64 339 0.0 0.0 0.00 0.00 0.00 99 1008.3
20260905083441 64 339 0.0 0.0 0.00 0.00 0.00 99 1008.4
20260905082937 63 339 0.0 0.0 0.00 0.00 0.00 99 1008.4
20260905082433 64 339 0.0 0.0 0.00 0.00 0.00 99 1008.3
20260905081927 64 339 0.0 0.0 0.00 0.00 0.00 99 1008.4
20260905081422 64 339 0.0 0.0 0.00 0.00 0.00 99 1008.6
20260905080921 64 339 0.0 0.0 0.00 0.00 0.00 99 1008.6
20260905080416 64 339 0.0 0.0 0.00 0.00 0.00 99 1008.5
20260905075915 64 339 0.0 0.0 0.00 0.00 0.00 99 1008.7
20260905075409 64 339 0.0 0.0 0.00 0.00 0.00 99 1008.8
20260905074908 64 339 0.0 0.0 0.00 0.00 0.00 99 1008.5
20260905074404 64 339 0.0 0.0 0.00 0.00 0.00 99 1008.7
20260905073900 64 339 0.0 0.0 0.00 0.00 0.00 99 1008.5
20260905073355 64 339 0.0 0.0 0.00 0.00 0.00 99 1008.7
20260905072850 64 339 0.0 0.0 0.00 0.00 0.00 99 1008.6
20260905072345 64 339 0.0 0.0 0.00 0.00 0.00 99 1008.7
20260905071841 64 339 0.0 0.0 0.00 0.00 0.00 99 1008.8
20260905071337 64 339 0.0 0.0 0.00 0.00 0.00 99 1009.0
20260905070831 64 339 0.0 0.0 0.00 0.00 0.00 99 1009.0
20260905070328 64 339 0.0 0.0 0.00 0.00 0.00 99 1009.3
20260905065826 64 339 0.0 0.0 0.00 0.00 0.00 99 1009.0
20260905065325 64 339 0.0 0.0 0.00 0.00 0.00 99 1009.0
20260905064820 64 339 0.0 0.0 0.00 0.00 0.00 99 1009.3
20260905064316 64 339 0.0 0.0 0.00 0.00 0.00 99 1009.3
20260905063815 65 339 0.0 0.0 0.00 0.00 0.00 99 1009.6
20260905063311 65 339 0.0 0.0 0.00 0.00 0.00 99 1009.5
20260905062807 65 339 0.0 0.0 0.00 0.00 0.00 99 1009.7
20260905062307 65 339 0.0 0.0 0.00 0.00 0.00 99 1009.6
20260905061801 65 339 0.0 0.0 0.00 0.00 0.00 99 1009.6
20260905061256 65 339 0.0 0.0 0.00 0.00 0.00 99 1009.9
20260905060750 65 339 0.0 0.0 0.00 0.00 0.00 99 1009.8
20260905060247 66 339 0.0 0.0 0.00 0.00 0.00 99 1010.0
20260905055745 66 339 0.0 0.0 0.00 0.00 0.00 99 1010.0
20260905055241 66 339 0.0 0.0 0.00 0.00 0.00 99 1010.1
20260905054735 66 339 0.0 0.0 0.00 0.00 0.00 99 1010.0
20260905054232 66 339 0.0 0.0 0.00 0.00 0.00 99 1010.2
20260905053731 66 339 0.0 0.0 0.00 0.00 0.00 99 1010.4
20260905053227 66 339 0.0 0.0 0.00 0.00 0.00 99 1010.8
20260905052720 66 339 0.0 0.0 0.00 0.00 0.00 99 1010.3
20260905052215 66 339 0.0 0.0 0.00 0.00 0.00 99 1010.4
20260905051715 66 339 0.0 0.0 0.00 0.00 0.00 99 1010.3
20260905051212 66 339 0.0 0.0 0.00 0.00 0.00 99 1010.3
20260905050708 66 339 0.0 0.0 0.00 0.00 0.00 99 1010.5
20260905050204 66 339 0.0 0.0 0.00 0.00 0.00 99 1010.5
20260905045703 66 339 0.0 0.0 0.00 0.00 0.00 99 1010.9
20260905045159 66 339 0.0 0.0 0.00 0.00 0.00 99 1011.0
20260905044654 66 339 0.0 0.0 0.00 0.00 0.00 99 1010.8
20260905044149 66 339 0.0 0.0 0.00 0.00 0.00 99 1010.8
20260905043648 66 339 0.0 0.0 0.00 0.00 0.00 99 1010.8
20260905043143 66 339 0.0 0.0 0.00 0.00 0.00 99 1010.6
20260905042642 66 339 0.0 0.0 0.00 0.00 0.00 99 1010.8
20260905042137 66 339 0.0 0.0 0.00 0.00 0.00 99 1010.9
20260905041633 67 339 0.0 0.0 0.00 0.00 0.00 99 1010.9
20260905041129 67 339 0.0 0.0 0.00 0.00 0.00 99 1010.8
20260905040628 67 339 0.0 0.0 0.00 0.00 0.00 99 1011.0
20260905040121 67 339 0.0 0.0 0.00 0.00 0.00 99 1010.9
20260905035617 67 339 0.0 0.0 0.00 0.83 0.83 99 1010.9
20260905035113 67 339 0.0 0.0 0.00 0.83 0.83 99 1010.9
20260905034608 67 339 0.0 0.0 0.00 0.83 0.83 99 1010.9
20260905034102 67 339 0.0 0.0 0.00 0.83 0.83 99 1010.9
20260905033601 67 339 0.0 0.0 0.00 0.83 0.83 99 1010.9
20260905033058 67 339 0.0 0.0 0.00 0.83 0.83 99 1011.0
20260905032557 68 339 0.0 0.0 0.00 0.83 0.83 99 1011.0
20260905032052 68 339 0.0 0.0 0.00 0.83 0.83 99 1010.8
20260905031548 68 339 0.0 0.0 0.00 0.83 0.83 99 1011.1
20260905031048 68 339 0.0 0.0 0.00 0.83 0.83 99 1010.9
20260905030543 68 339 0.0 0.0 0.00 0.83 0.83 99 1010.6
20260905030043 68 339 0.0 0.0 0.00 0.83 0.83 99 1010.8
20260905025538 68 339 0.0 0.0 0.00 0.83 0.83 99 1010.9
20260905025035 68 339 0.0 0.0 0.00 0.83 0.83 99 1010.6
20260905024531 68 339 0.0 0.0 0.00 0.83 0.83 99 1010.9
20260905024026 68 339 0.0 0.0 0.00 0.83 0.83 99 1010.8
20260905023521 68 339 0.0 0.0 0.00 0.83 0.83 99 1010.9
20260905023021 68 339 0.0 0.0 0.00 0.83 0.83 99 1010.8
20260905022520 68 339 0.0 0.0 0.00 0.83 0.83 99 1010.8
20260905022016 69 339 0.0 0.0 0.00 0.83 0.83 99 1010.5
20260905021515 69 333 0.0 0.0 0.00 0.83 0.83 99 1010.4
20260905021010 69 333 0.0 0.0 0.00 0.83 0.83 99 1010.5
20260905020505 69 339 0.0 0.0 0.00 0.83 0.83 99 1010.4
20260905020005 69 339 0.0 0.0 0.00 0.83 0.83 99 1010.1
20260905015503 69 339 0.0 0.0 0.00 0.83 0.83 99 1010.0
20260905015003 69 339 0.0 0.0 0.00 0.83 0.83 99 1009.9
20260905014458 69 340 0.0 0.0 0.00 0.83 0.83 99 1010.0
20260905013953 69 340 0.0 0.0 0.00 0.83 0.83 99 1009.8
20260905013444 69 340 0.0 0.0 0.00 0.83 0.83 99 1009.7
20260905012938 69 340 0.0 0.0 0.00 0.83 0.83 99 1009.7
20260905012434 69 340 0.0 0.0 0.00 0.83 0.83 99 1009.9
20260905011930 69 340 0.0 0.0 0.00 0.83 0.83 99 1009.9
20260905011426 69 340 0.0 0.0 0.00 0.83 0.83 99 1010.0
20260905010921 69 340 0.0 0.0 0.00 0.83 0.83 99 1009.7
20260905010416 69 340 0.0 0.0 0.00 0.83 0.83 99 1009.7
20260905005912 69 340 0.0 0.0 0.00 0.83 0.83 99 1009.8
20260905005408 69 340 0.0 0.0 0.00 0.83 0.83 99 1009.9
20260905004903 69 340 0.0 0.0 0.00 0.83 0.83 99 1009.8
20260905004403 69 340 0.0 0.0 0.00 0.83 0.83 99 1009.7
20260905003858 69 340 0.0 0.0 0.00 0.83 0.83 99 1009.7
20260905003354 70 340 0.0 0.0 0.00 0.83 0.83 99 1009.8
20260905002850 70 338 0.0 0.0 0.00 0.83 0.83 99 1009.9
20260905002344 70 347 0.0 0.0 0.00 0.83 0.83 99 1009.7
20260905001838 70 354 0.0 0.0 0.00 0.83 0.83 99 1009.7
20260905001333 70 354 0.0 0.0 0.00 0.83 0.83 99 1009.7
20260905000828 71 352 0.0 0.0 0.00 0.83 0.83 99 1009.5
20260905000325 71 347 0.0 0.0 0.00 0.83 0.83 99 1009.6
20260904235819 71 5 0.0 0.9 0.00 0.83 0.83 99 1009.5
20260904235314 72 2 0.0 0.0 0.00 0.83 0.83 99 1009.7
20260904234808 72 0 0.0 0.0 0.00 0.83 0.83 99 1009.6
20260904234258 73 332 0.9 1.7 0.00 0.83 0.83 98 1009.5
20260904233753 73 335 0.9 0.9 0.00 0.83 0.83 96 1009.6
20260904233244 73 341 0.0 0.0 0.00 0.83 0.83 93 1009.7
20260904232741 75 342 0.9 0.9 0.00 0.83 0.83 90 1009.6
20260904232236 74 343 0.9 0.9 0.00 0.83 0.83 90 1009.6
20260904231731 74 342 0.0 0.9 0.00 0.83 0.83 89 1009.6
20260904231227 74 344 0.0 0.0 0.00 0.83 0.83 90 1009.7
20260904230727 75 343 0.0 0.0 0.00 0.83 0.83 89 1009.7
20260904230221 75 342 0.9 0.9 0.00 0.83 0.83 87 1009.8
20260904225720 75 344 0.0 0.9 0.00 0.83 0.83 88 1009.9
20260904225215 73 342 1.7 1.7 0.00 0.83 0.83 93 1009.8
20260904224714 73 340 0.0 0.9 0.00 0.83 0.83 95 1009.7
20260904224209 72 341 0.9 0.9 0.00 0.83 0.83 98 1009.9
20260904223708 72 342 0.0 0.9 0.00 0.83 0.83 99 1009.9
20260904223203 73 343 0.0 0.0 0.00 0.83 0.83 99 1010.1
20260904222659 73 343 0.0 0.0 0.00 0.83 0.83 99 1010.4
20260904222155 72 343 0.0 0.0 0.00 0.83 0.83 99 1010.2
20260904221654 72 344 0.0 0.0 0.00 0.83 0.83 99 1010.3
20260904221149 73 344 0.0 0.0 0.00 0.83 0.83 99 1010.2
20260904220643 73 344 0.0 0.0 0.00 0.83 0.83 99 1010.2
20260904220138 73 344 0.0 0.0 0.00 0.83 0.83 99 1010.1
20260904215633 73 343 0.0 0.0 0.00 0.83 0.83 99 1010.1
20260904215130 73 344 0.0 0.0 0.00 0.83 0.83 99 1010.0
20260904214630 73 344 0.0 0.0 0.00 0.83 0.83 99 1009.9
20260904214125 72 344 0.0 0.0 0.00 0.83 0.83 99 1010.0
20260904213623 72 344 0.0 0.0 0.00 0.83 0.83 99 1010.2
20260904213119 72 344 0.0 0.0 0.00 0.83 0.83 99 1010.2
20260904212614 72 344 0.0 0.0 0.00 0.83 0.83 99 1010.2
20260904212109 72 344 0.0 0.0 0.00 0.83 0.83 99 1010.6
20260904211608 72 344 0.0 0.0 0.00 0.83 0.83 99 1011.0
20260904211103 72 344 0.0 0.0 0.00 0.83 0.83 99 1011.0
20260904210602 72 345 0.0 0.0 0.00 0.83 0.83 99 1010.9
20260904210059 72 344 0.0 0.0 0.00 0.83 0.83 99 1010.8
20260904205554 72 343 0.9 1.7 0.00 0.83 0.83 99 1011.0
20260904205050 72 339 0.0 0.9 0.00 0.83 0.83 99 1011.0
20260904204546 72 344 0.0 0.0 0.00 0.83 0.83 99 1011.1
20260904204042 72 344 0.0 0.0 0.00 0.83 0.83 99 1011.3
20260904203538 72 340 0.9 0.9 0.00 0.83 0.83 99 1011.2
20260904203034 72 341 0.9 0.9 0.00 0.83 0.83 99 1011.2
20260904202530 71 339 1.7 1.7 0.00 0.83 0.83 99 1011.1
20260904202026 71 331 1.7 1.7 0.00 0.83 0.83 99 1011.3
20260904201521 71 330 0.0 0.0 0.00 0.83 0.83 99 1011.0
20260904201016 71 330 0.0 0.0 0.00 0.83 0.83 99 1010.6
20260904200514 71 330 0.0 0.0 0.00 0.83 0.83 99 1010.4
20260904200005 71 330 0.0 0.0 0.00 0.83 0.83 99 1010.9
20260904195503 71 329 0.9 0.9 0.00 0.83 0.83 99 1010.5
20260904195002 71 333 0.0 0.0 0.00 0.83 0.83 99 1010.5
20260904194457 71 331 0.0 0.0 0.00 0.83 0.83 99 1010.5
20260904193952 71 333 0.0 0.0 0.00 0.83 0.83 99 1010.5
20260904193447 70 333 0.0 0.0 0.00 0.83 0.83 99 1010.4
20260904192942 70 331 0.0 0.0 0.00 0.83 0.83 99 1010.5
20260904192437 70 331 0.0 0.0 0.00 0.83 0.83 99 1010.8
20260904191934 70 331 0.0 0.0 0.00 0.83 0.83 99 1010.6
20260904191430 70 331 0.0 0.0 0.00 0.83 0.83 99 1010.8
20260904190926 70 331 0.0 0.0 0.07 0.83 0.83 99 1011.1
20260904190421 70 331 0.0 0.0 0.50 0.83 0.83 99 1010.6
20260904185917 70 331 0.0 0.0 1.25 0.82 0.82 99 1010.6
20260904185413 70 188 1.7 1.7 2.22 0.76 0.76 99 1011.0
20260904184913 70 340 0.9 0.9 3.52 0.62 0.62 99 1012.2
20260904184407 73 304 2.6 3.5 1.68 0.30 0.30 95 1013.2
20260904183903 80 39 4.3 6.1 0.00 0.02 0.02 88 1012.6
20260904183358 82 18 0.0 0.0 0.00 0.02 0.02 94 1010.3
20260904182854 83 7 0.0 0.9 0.00 0.02 0.02 94 1010.2
20260904182348 84 5 0.0 0.0 0.07 0.02 0.02 92 1009.9
20260904181843 83 348 0.0 0.9 0.07 0.02 0.02 87 1010.3
20260904181338 87 355 0.9 1.7 0.07 0.02 0.02 79 1010.4
20260904180834 88 12 0.0 0.0 0.00 0.01 0.01 74 1010.6
20260904180329 89 348 0.9 0.9 0.00 0.01 0.01 72 1010.5
20260904175828 89 353 1.7 1.7 0.00 0.01 0.01 71 1011.0
20260904175326 90 343 0.9 0.9 0.00 0.01 0.01 67 1010.5
20260904174821 89 0 0.0 0.9 0.00 0.01 0.01 75 1010.9
20260904174317 88 4 0.9 0.9 0.00 0.01 0.01 73 1010.8
20260904173813 88 27 2.6 3.5 0.00 0.01 0.01 69 1010.9
20260904173308 88 297 0.9 1.7 0.00 0.01 0.01 74 1010.8
20260904172804 89 4 0.0 0.9 0.00 0.01 0.01 68 1011.0
20260904172305 89 336 0.9 0.9 0.00 0.01 0.01 71 1010.9
20260904171758 89 348 0.0 0.9 0.00 0.01 0.01 69 1011.3
20260904171253 89 343 0.0 0.9 0.00 0.01 0.01 73 1011.2
20260904170750 87 7 0.9 1.7 0.00 0.01 0.01 73 1011.1
20260904170246 88 340 0.0 0.0 0.00 0.01 0.01 70 1011.2
20260904165744 87 344 0.0 0.0 0.00 0.01 0.01 73 1011.4
20260904165238 87 341 0.9 0.9 0.00 0.01 0.01 72 1011.0
20260904164732 86 313 0.9 0.9 0.00 0.01 0.01 75 1011.6
20260904164227 86 318 0.9 1.7 0.00 0.01 0.01 77 1011.7
20260904163724 87 314 0.9 0.9 0.00 0.01 0.01 74 1011.5
20260904163219 87 344 0.9 0.9 0.00 0.01 0.01 71 1011.5
20260904162718 87 0 0.0 0.9 0.00 0.01 0.01 72 1011.7
20260904162213 87 334 0.9 0.9 0.00 0.01 0.01 72 1011.9
20260904161709 86 340 0.0 0.0 0.00 0.01 0.01 75 1011.9
20260904161203 86 55 1.7 3.5 0.00 0.01 0.01 70 1011.8
20260904160659 87 72 0.9 1.7 0.00 0.01 0.01 70 1011.8
20260904160154 87 349 0.0 0.0 0.00 0.01 0.01 74 1012.0
20260904155649 86 19 0.9 0.9 0.00 0.01 0.01 71 1011.7
20260904155148 86 25 0.0 0.9 0.00 0.01 0.01 69 1012.0
20260904154648 85 344 0.0 0.0 0.00 0.01 0.01 73 1011.8
20260904154147 85 10 0.9 0.9 0.00 0.01 0.01 71 1011.9
20260904153643 84 7 1.7 1.7 0.00 0.01 0.01 78 1012.0
20260904153138 85 27 1.7 1.7 0.00 0.01 0.01 72 1011.9
20260904152635 85 317 1.7 2.6 0.00 0.01 0.01 74 1012.0
20260904152130 85 345 0.0 0.9 0.00 0.01 0.01 72 1012.0
20260904151625 84 0 0.9 1.7 0.00 0.01 0.01 73 1011.7
20260904151123 84 345 1.7 1.7 0.00 0.01 0.01 73 1011.8
20260904150619 83 1 0.9 1.7 0.00 0.01 0.01 76 1011.9
20260904150114 83 356 2.6 2.6 0.00 0.01 0.01 74 1012.1
20260904145613 82 236 1.7 2.6 0.00 0.01 0.01 77 1011.9
20260904145108 82 12 0.0 0.0 0.00 0.01 0.01 83 1011.9
20260904144604 83 354 0.0 0.0 0.00 0.01 0.01 76 1011.9
20260904144059 83 346 0.0 0.9 0.00 0.01 0.01 78 1011.9
20260904143555 82 343 1.7 2.6 0.00 0.01 0.01 75 1012.1
20260904143052 82 19 0.0 0.0 0.00 0.01 0.01 74 1012.1
20260904142548 82 27 0.0 0.9 0.00 0.01 0.01 85 1012.1
20260904142043 82 25 0.0 0.9 0.00 0.01 0.01 81 1012.2
20260904141538 81 11 0.0 0.0 0.00 0.01 0.01 82 1012.2
20260904141034 81 26 0.0 0.0 0.00 0.01 0.01 84 1012.1
20260904140534 81 66 0.9 1.7 0.00 0.01 0.01 82 1012.2
20260904140028 80 31 0.9 0.9 0.00 0.01 0.01 80 1012.4
20260904135527 80 28 0.0 0.9 0.00 0.01 0.01 85 1012.1
20260904135024 79 26 0.0 0.0 0.00 0.01 0.01 84 1012.2
20260904134519 78 51 1.7 1.7 0.00 0.01 0.01 86 1012.3
20260904134013 79 33 0.0 0.9 0.00 0.01 0.01 84 1012.2
20260904133507 77 35 0.0 0.0 0.00 0.01 0.01 88 1012.2
20260904133004 79 35 0.0 0.0 0.00 0.01 0.01 84 1012.1
20260904132458 78 36 0.0 0.0 0.00 0.01 0.01 84 1012.2
20260904131958 77 18 0.9 0.9 0.00 0.01 0.01 84 1012.2
20260904131453 76 12 0.9 0.9 0.00 0.01 0.01 85 1012.1
20260904130949 75 313 3.5 3.5 0.00 0.01 0.01 86 1012.4
20260904130448 74 332 0.9 0.9 0.00 0.01 0.01 91 1012.2
20260904125942 74 22 0.0 0.0 0.00 0.01 0.01 91 1012.2
20260904125439 74 17 0.0 0.0 0.00 0.01 0.01 89 1012.4
20260904124938 73 343 0.0 0.0 0.00 0.01 0.01 90 1012.2
20260904124434 73 350 0.0 0.9 0.00 0.01 0.01 92 1012.2
20260904123930 72 330 1.7 1.7 0.00 0.01 0.01 92 1012.3
20260904123430 71 5 0.0 0.0 0.00 0.01 0.01 96 1012.4
20260904122925 71 4 0.0 0.0 0.00 0.01 0.01 95 1012.1
20260904122425 71 6 0.0 0.0 0.00 0.01 0.01 97 1012.2
20260904121919 70 7 0.0 0.0 0.00 0.01 0.01 98 1012.3
20260904121416 70 339 0.9 0.9 0.00 0.01 0.01 99 1012.1
20260904120907 70 354 0.0 0.0 0.00 0.01 0.01 99 1012.4
20260904120403 70 343 0.0 0.0 0.00 0.01 0.01 99 1012.2
20260904115858 71 356 0.0 0.0 0.00 0.01 0.01 98 1012.1
20260904115352 71 355 0.0 0.0 0.00 0.01 0.01 98 1012.2
20260904114847 70 355 0.0 0.0 0.00 0.01 0.01 97 1011.8
20260904114341 70 353 0.0 0.9 0.00 0.01 0.01 98 1012.0
20260904113836 70 325 0.0 0.0 0.00 0.01 0.01 99 1011.8
20260904113336 70 324 0.0 0.0 0.00 0.01 0.01 98 1011.8
20260904112825 70 322 0.9 0.9 0.00 0.01 0.01 97 1011.5
20260904112321 70 304 0.0 0.0 0.00 0.01 0.01 97 1011.7
20260904111817 70 47 0.9 1.7 0.00 0.01 0.01 96 1011.5
20260904111312 70 340 0.9 0.9 0.00 0.01 0.01 99 1011.7
20260904110808 70 328 0.9 0.9 0.00 0.01 0.01 97 1011.8
20260904110307 70 351 0.0 0.0 0.00 0.01 0.01 99 1012.0
20260904105802 70 43 0.9 0.9 0.00 0.01 0.01 99 1011.9
20260904105305 70 330 0.9 0.9 0.00 0.01 0.01 96 1012.1
20260904104757 69 321 0.9 1.7 0.00 0.01 0.01 99 1011.8
20260904104253 69 343 0.0 0.9 0.00 0.01 0.01 99 1011.9
20260904103749 69 326 0.0 0.0 0.00 0.01 0.01 99 1011.6
20260904103243 69 326 0.0 0.0 0.00 0.01 0.01 99 1011.7
20260904102739 69 313 0.0 0.0 0.00 0.01 0.01 98 1011.6
20260904102234 69 359 0.0 0.0 0.00 0.01 0.01 99 1011.8
20260904101731 70 14 0.0 0.0 0.00 0.01 0.01 98 1011.8
20260904101226 70 328 1.7 1.7 0.00 0.01 0.01 97 1011.9
20260904100722 69 319 1.7 1.7 0.00 0.01 0.01 99 1011.8
20260904100218 69 354 0.0 0.9 0.00 0.01 0.01 99 1011.8